Mojave, CA

4:01 AM PST on November 13, 2019 (GMT -0800)
Mojave

Weather History for KMHV - June, 2019

Change the Weather History Date:

Monday, June 3, 2019

  Actual Average Record
Temperature  
Mean Temperature 76 °F -  
Max Temperature 87 °F 87 °F 98 °F (1987)
Min Temperature 64 °F 62 °F 43 °F (1967)
Cooling Degree Days 10    
Growing Degree Days 26 (Base 50)    
Moisture  
Dew Point 46 °F    
Average Humidity 37    
Maximum Humidity 56    
Minimum Humidity 16    
Precipitation  
Precipitation 0.00 in - - ()
Sea Level Pressure  
Sea Level Pressure 29.89 in    
Wind  
Wind Speed 13 mph (NW)    
Max Wind Speed 29 mph    
Max Gust Speed 37 mph    
Visibility 10 miles    
Events      
Averages and records for this station are not official NWS values.
T = Trace of Precipitation, MM = Missing Value Source: NWS Daily Summary

Daily Weather History Graph

Daily Weather History Graph

Search for Another Location

Airport or City:

Astronomy

Jun. 03, 2019 Rise Set
Actual Time 5:39 AM PDT 8:02 PM PDT
Civil Twilight 5:09 AM PDT 8:31 PM PDT
Nautical Twilight 4:33 AM PDT 9:08 PM PDT
Astronomical Twilight 3:54 AM PDT 9:47 PM PDT
Moon 6:01 AM PDT (6/3) 8:33 PM PDT (6/3)
Length of Visible Light 15h 22m
Length of Day
14h 23m
New Moon, 0% of the Moon is Illuminated
Jun 3
New Moon
Jun 9
First Quarter
Jun 17
Full
Jun 25
Last Quarter
Jul 2
New

Hourly Weather History & Observations

Time (PDT) Temp. Dew Point Humidity Pressure Visibility Wind Dir Wind Speed Gust Speed Precip Events Conditions
12:00 AM 68.0 °F 46.4 °F 46% 29.87 in 10.0 mi WNW 15.0 mph - N/A   Clear
12:20 AM 68.0 °F 46.4 °F 46% 29.87 in 10.0 mi WNW 19.6 mph - N/A   Clear
12:40 AM 68.0 °F 46.4 °F 46% 29.87 in 10.0 mi WNW 17.3 mph - N/A   Clear
1:00 AM 68.0 °F 46.4 °F 46% 29.87 in 10.0 mi WNW 17.3 mph - N/A   Clear
1:20 AM 68.0 °F 46.4 °F 46% 29.87 in 10.0 mi WNW 17.3 mph - N/A   Clear
1:40 AM 68.0 °F 46.4 °F 46% 29.87 in 10.0 mi WNW 15.0 mph - N/A   Clear
2:00 AM 68.0 °F 46.4 °F 46% 29.87 in 10.0 mi WNW 16.1 mph 21.9 mph N/A   Clear
2:20 AM 68.0 °F 46.4 °F 46% 29.87 in 10.0 mi WNW 17.3 mph - N/A   Clear
2:40 AM 66.2 °F 46.4 °F 49% 29.87 in 10.0 mi WNW 16.1 mph - N/A   Clear
3:00 AM 66.2 °F 46.4 °F 49% 29.87 in 10.0 mi NW 18.4 mph - N/A   Clear
3:20 AM 66.2 °F 48.2 °F 52% 29.87 in 10.0 mi WNW 17.3 mph - N/A   Clear
3:40 AM 66.2 °F 46.4 °F 49% 29.87 in 10.0 mi WNW 13.8 mph - N/A   Clear
4:00 AM 66.2 °F 46.4 °F 49% 29.87 in 10.0 mi WNW 12.7 mph - N/A   Clear
4:20 AM 66.2 °F 46.4 °F 49% 29.87 in 10.0 mi WNW 13.8 mph - N/A   Clear
4:40 AM 66.2 °F 48.2 °F 52% 29.87 in 10.0 mi NW 15.0 mph - N/A   Clear
5:00 AM 64.4 °F 48.2 °F 56% 29.88 in 10.0 mi NW 11.5 mph - N/A   Clear
5:20 AM 64.4 °F 48.2 °F 56% 29.88 in 10.0 mi NW 10.4 mph - N/A   Clear
5:40 AM 64.4 °F 48.2 °F 56% 29.89 in 10.0 mi NW 9.2 mph 15.0 mph N/A   Clear
6:00 AM 66.2 °F 48.2 °F 52% 29.89 in 10.0 mi NW 13.8 mph - N/A   Clear
6:20 AM 66.2 °F 48.2 °F 52% 29.90 in 10.0 mi NNW 5.8 mph - N/A   Clear
6:40 AM 68.0 °F 48.2 °F 49% 29.90 in 10.0 mi Calm Calm - N/A   Clear
7:00 AM 69.8 °F 46.4 °F 43% 29.90 in 10.0 mi NNE 3.5 mph - N/A   Clear
7:20 AM 69.8 °F 44.6 °F 40% 29.91 in 10.0 mi Calm Calm - N/A   Clear
7:40 AM 69.8 °F 44.6 °F 40% 29.91 in 10.0 mi ESE 3.5 mph - N/A   Clear
8:00 AM 71.6 °F 44.6 °F 38% 29.92 in 10.0 mi Calm Calm - N/A   Clear
8:20 AM 73.4 °F 46.4 °F 38% 29.93 in 10.0 mi Calm Calm - N/A   Clear
8:40 AM 75.2 °F 46.4 °F 36% 29.93 in 10.0 mi Calm Calm - N/A   Clear
9:00 AM 78.8 °F 44.6 °F 30% 29.93 in 10.0 mi Calm Calm - N/A   Clear
9:20 AM 77.0 °F 46.4 °F 34% 29.93 in 10.0 mi Calm Calm - N/A   Clear
9:40 AM 78.8 °F 44.6 °F 30% 29.93 in 10.0 mi Calm Calm - N/A   Clear
10:00 AM 78.8 °F 44.6 °F 30% 29.93 in 10.0 mi NNE 4.6 mph - N/A   Clear
10:20 AM 80.6 °F 42.8 °F 26% 29.93 in 10.0 mi ENE 5.8 mph - N/A   Clear
10:40 AM 80.6 °F 42.8 °F 26% 29.93 in 10.0 mi Calm Calm 11.5 mph N/A   Clear
11:00 AM 80.6 °F 41.0 °F 24% 29.94 in 10.0 mi Calm Calm 11.5 mph N/A   Clear
11:20 AM 82.4 °F 41.0 °F 23% 29.94 in 10.0 mi East 6.9 mph - N/A   Clear
11:40 AM 82.4 °F 39.2 °F 21% 29.94 in 10.0 mi Calm Calm - N/A   Clear
12:00 PM 82.4 °F 39.2 °F 21% 29.93 in 10.0 mi SE 4.6 mph 15.0 mph N/A   Clear
12:20 PM 84.2 °F 37.4 °F 19% 29.93 in 10.0 mi ESE 9.2 mph - N/A   Clear
12:40 PM 84.2 °F 37.4 °F 19% 29.92 in 10.0 mi Variable 4.6 mph - N/A   Clear
1:00 PM 86.0 °F 37.4 °F 18% 29.92 in 10.0 mi NE 4.6 mph - N/A   Partly Cloudy
1:20 PM 86.0 °F 35.6 °F 17% 29.91 in 10.0 mi Variable 4.6 mph 11.5 mph N/A   Partly Cloudy
1:40 PM 87.8 °F 35.6 °F 16% 29.91 in 10.0 mi SW 4.6 mph - N/A   Scattered Clouds
2:00 PM 86.0 °F 35.6 °F 17% 29.90 in 10.0 mi Variable 6.9 mph - N/A   Partly Cloudy
2:20 PM 86.0 °F 35.6 °F 17% 29.90 in 10.0 mi Variable 4.6 mph - N/A   Partly Cloudy
2:40 PM 87.8 °F 35.6 °F 16% 29.90 in 10.0 mi NW 5.8 mph - N/A   Clear
3:00 PM 86.0 °F 44.6 °F 23% 29.89 in 10.0 mi WNW 10.4 mph 18.4 mph N/A   Scattered Clouds
3:20 PM 87.8 °F 44.6 °F 22% 29.89 in 10.0 mi WNW 13.8 mph 21.9 mph N/A   Partly Cloudy
3:40 PM 87.8 °F 42.8 °F 21% 29.88 in 10.0 mi West 11.5 mph - N/A   Clear
4:00 PM 87.8 °F 48.2 °F 25% 29.88 in 10.0 mi WNW 18.4 mph - N/A   Clear
4:20 PM 86.0 °F 51.8 °F 31% 29.87 in 10.0 mi WNW 17.3 mph - N/A   Clear
4:40 PM 86.0 °F 51.8 °F 31% 29.87 in 10.0 mi WNW 20.7 mph - N/A   Clear
5:00 PM 82.4 °F 51.8 °F 35% 29.87 in 10.0 mi WNW 20.7 mph 26.5 mph N/A   Clear
5:20 PM 84.2 °F 51.8 °F 33% 29.87 in 10.0 mi NW 17.3 mph 26.5 mph N/A   Clear
5:40 PM 84.2 °F 50.0 °F 30% 29.86 in 10.0 mi WNW 18.4 mph 27.6 mph N/A   Clear
6:00 PM 84.2 °F 50.0 °F 30% 29.86 in 10.0 mi WNW 20.7 mph - N/A   Clear
6:20 PM 82.4 °F 50.0 °F 32% 29.86 in 10.0 mi NW 21.9 mph 28.8 mph N/A   Clear
6:40 PM 82.4 °F 50.0 °F 32% 29.86 in 10.0 mi WNW 20.7 mph 27.6 mph N/A   Clear
7:00 PM 80.6 °F 50.0 °F 34% 29.86 in 10.0 mi WNW 24.2 mph 31.1 mph N/A   Clear
7:20 PM 78.8 °F 50.0 °F 36% 29.87 in 10.0 mi WNW 23.0 mph 29.9 mph N/A   Clear
7:40 PM 77.0 °F 51.8 °F 41% 29.87 in 10.0 mi WNW 20.7 mph 29.9 mph N/A   Clear
8:00 PM 77.0 °F 53.6 °F 44% 29.88 in 10.0 mi WNW 24.2 mph 31.1 mph N/A   Clear
8:20 PM 75.2 °F 51.8 °F 44% 29.88 in 10.0 mi WNW 25.3 mph 36.8 mph N/A   Clear
8:40 PM 75.2 °F 51.8 °F 44% 29.88 in 10.0 mi WNW 25.3 mph 35.7 mph N/A   Clear
9:00 PM 75.2 °F 51.8 °F 44% 29.88 in 10.0 mi NW 28.8 mph 34.5 mph N/A   Clear
9:20 PM 75.2 °F 51.8 °F 44% 29.89 in 10.0 mi WNW 25.3 mph 34.5 mph N/A   Clear
9:40 PM 75.2 °F 51.8 °F 44% 29.90 in 10.0 mi WNW 25.3 mph 35.7 mph N/A   Clear
10:00 PM 73.4 °F 51.8 °F 47% 29.91 in 10.0 mi WNW 25.3 mph 33.4 mph N/A   Clear
10:20 PM 73.4 °F 51.8 °F 47% 29.91 in 10.0 mi WNW 27.6 mph 33.4 mph N/A   Clear
10:40 PM 73.4 °F 51.8 °F 47% 29.91 in 10.0 mi WNW 26.5 mph 35.7 mph N/A   Clear
11:00 PM 73.4 °F 50.0 °F 44% 29.91 in 10.0 mi WNW 21.9 mph 32.2 mph N/A   Clear
11:20 PM 73.4 °F 50.0 °F 44% 29.91 in 10.0 mi WNW 24.2 mph 31.1 mph N/A   Clear
11:40 PM 73.4 °F 50.0 °F 44% 29.91 in 10.0 mi WNW 24.2 mph 35.7 mph N/A   Clear